User: anonymous   Login
Location: Brede
(50.9167°N, 0.6000°E)
Time: 06:25:01
(UTC+00:00)
Language:

Cosmos 1626 Rocket - Orbit

View from above orbital plane
View from above orbital plane
View from above satellite
View from above satellite

Ground track
Ground track

The orbit data is extracted from the following two-line orbital elements,

1 15495U 85009B   20295.23018991 +.00000061 +00000-0 +44395-5 0  9994
2 15495 082.5210 122.6604 0018614 257.3111 102.6024 14.83879931910092
Epoch (UTC): 21 October 2020 05:31:28
Eccentricity: 0.0018614
inclination: 82.5210°
perigee height: 604 km
apogee height: 630 km
right ascension of ascending node: 122.6604°
argument of perigee: 257.3111°
revolutions per day: 14.83879931
mean anomaly at epoch: 102.6024°
orbit number at epoch: 91009

The dashed part of the orbit path shows where the satellite is in the earth's shadow,  

DLR